TimeMST,TemperatureF,Dew PointF,Humidity,Sea Level PressureIn,VisibilityMPH,Wind Direction,Wind SpeedMPH,Gust SpeedMPH,PrecipitationIn,Events,Conditions,WindDirDegrees,DateUTC
12:15 AM,15.8,15.8,100,30.14,2.5,ENE,3.5,-,N/A,,Unknown,70,2013-02-27 07:15:00
12:35 AM,15.8,14.0,93,30.14,4.0,East,3.5,-,N/A,,Unknown,90,2013-02-27 07:35:00
12:55 AM,15.8,14.0,93,30.15,3.0,East,3.5,-,N/A,,Unknown,80,2013-02-27 07:55:00
1:15 AM,14.0,12.2,93,30.15,3.0,East,4.6,-,N/A,,Unknown,90,2013-02-27 08:15:00
1:35 AM,14.0,12.2,93,30.16,2.0,ESE,4.6,-,N/A,,Unknown,110,2013-02-27 08:35:00
1:55 AM,10.4,8.6,92,30.16,10.0,ESE,4.6,-,N/A,,Unknown,110,2013-02-27 08:55:00
2:15 AM,12.2,10.4,92,30.17,10.0,ENE,4.6,-,N/A,,Unknown,70,2013-02-27 09:15:00
2:35 AM,8.6,6.8,92,30.16,10.0,ESE,3.5,-,N/A,,Unknown,120,2013-02-27 09:35:00
2:55 AM,6.8,5.0,92,30.17,10.0,East,5.8,-,N/A,,Unknown,100,2013-02-27 09:55:00
3:15 AM,5.0,3.2,92,30.17,10.0,ESE,5.8,-,N/A,,Unknown,110,2013-02-27 10:15:00
3:35 AM,6.8,5.0,92,30.18,10.0,East,6.9,-,N/A,,Unknown,100,2013-02-27 10:35:00
3:55 AM,6.8,3.2,85,30.19,10.0,East,9.2,-,N/A,,Unknown,90,2013-02-27 10:55:00
4:15 AM,6.8,3.2,85,30.20,10.0,East,8.1,-,N/A,,Unknown,90,2013-02-27 11:15:00
4:35 AM,6.8,3.2,85,30.20,10.0,East,6.9,-,N/A,,Unknown,90,2013-02-27 11:35:00
4:55 AM,6.8,5.0,92,30.21,10.0,East,6.9,-,N/A,,Unknown,80,2013-02-27 11:55:00
5:15 AM,8.6,6.8,92,30.22,10.0,ESE,4.6,-,N/A,,Unknown,110,2013-02-27 12:15:00
5:55 AM,6.8,5.0,92,30.22,6.0,Calm,Calm,-,N/A,,Unknown,0,2013-02-27 12:55:00
6:15 AM,8.6,6.8,92,30.23,6.0,Calm,Calm,-,N/A,,Unknown,0,2013-02-27 13:15:00
6:35 AM,6.8,3.2,85,30.24,5.0,Calm,Calm,-,N/A,,Unknown,0,2013-02-27 13:35:00
6:50 AM,6.8,3.2,85,30.25,10.0,Calm,Calm,-,N/A,,Mostly Cloudy,0,2013-02-27 13:50:00
9:50 AM,12.2,8.6,85,30.28,10.0,Calm,Calm,-,N/A,,Partly Cloudy,0,2013-02-27 16:50:00
10:50 AM,26.6,15.8,64,30.26,10.0,Calm,Calm,-,N/A,,Partly Cloudy,0,2013-02-27 17:50:00
11:50 AM,23.0,12.2,63,30.25,10.0,Calm,Calm,-,N/A,,Partly Cloudy,0,2013-02-27 18:50:00
12:50 PM,26.6,12.2,55,30.22,10.0,Calm,Calm,-,N/A,,Partly Cloudy,0,2013-02-27 19:50:00
1:50 PM,28.4,10.4,47,30.20,10.0,Calm,Calm,-,N/A,,Partly Cloudy,0,2013-02-27 20:50:00
2:50 PM,30.2,8.6,40,30.19,10.0,Calm,Calm,-,N/A,,Partly Cloudy,0,2013-02-27 21:50:00
3:50 PM,30.2,6.8,37,30.18,10.0,West,4.6,-,N/A,,Partly Cloudy,260,2013-02-27 22:50:00
4:50 PM,30.2,6.8,37,30.18,10.0,SW,5.8,-,N/A,,Partly Cloudy,220,2013-02-27 23:50:00
5:50 PM,26.6,6.8,43,30.21,10.0,WSW,13.8,-,N/A,,Partly Cloudy,240,2013-02-28 00:50:00
6:50 PM,26.6,12.2,55,30.24,10.0,West,5.8,-,N/A,,Partly Cloudy,280,2013-02-28 01:50:00
7:50 PM,21.2,8.6,58,30.26,10.0,Calm,Calm,-,N/A,,Partly Cloudy,0,2013-02-28 02:50:00
8:50 PM,17.6,8.6,68,30.28,10.0,ENE,5.8,-,N/A,,Partly Cloudy,70,2013-02-28 03:50:00
9:50 PM,15.8,8.6,73,30.28,10.0,East,5.8,-,N/A,,Partly Cloudy,80,2013-02-28 04:50:00
10:50 PM,14.0,6.8,73,30.28,10.0,SE,4.6,-,N/A,,Partly Cloudy,130,2013-02-28 05:50:00
11:15 PM,12.2,5.0,73,30.29,10.0,Calm,Calm,-,N/A,,Unknown,0,2013-02-28 06:15:00
11:35 PM,10.4,3.2,73,30.29,10.0,Calm,Calm,-,N/A,,Unknown,0,2013-02-28 06:35:00
11:55 PM,10.4,3.2,73,30.29,10.0,SE,4.6,-,N/A,,Unknown,130,2013-02-28 06:55:00